Location: Ackerson Creek
(37.8210°N, 119.8757°W)
Time: 15:45:54
(UTC+00:00)

Cosmos 1656 Rocket - Pass Details

Date: 13 April 2024
Orbit: 796 x 844 km, 71.1° (Epoch: 22 May)

Event Time Altitude Azimuth Distance (km) Brightness Sun altitude
Rises 12:55:08 0° 339° (NNW) 3,307 6.8 -6.8°
Reaches altitude 10° 12:57:33 10° 342° (NNW) 2,372 6.0 -6.3°
Maximum altitude 13:02:58 74° 67° (ENE) 830 3.9 -5.3°
Drops below altitude 10° 13:08:21 10° 153° (SSE) 2,364 6.2 -4.3°
Sets 13:10:45 0° 155° (SSE) 3,295 6.9 -3.8°
